User: anonymous   Login
Location: Campillo
(40.8621°N, 4.2488°W)
Time: 05:32:11
(UTC+00:00)
Language:

Lacrosse 5 - Orbit

View from above orbital plane
View from above orbital plane
View from above satellite
View from above satellite

Ground track
Ground track

The orbit data is extracted from the following two-line orbital elements,

1 28646U 05016A   21209.99851973 0.00000000  00000-0  00000-0 0    06
2 28646  57.0057 279.0099 0006570 121.7652 238.2348 14.51873562    02
Epoch (UTC): 28 July 2021 23:57:52
Eccentricity: 0.0006570
inclination: 57.0057°
perigee height: 715 km
apogee height: 724 km
right ascension of ascending node: 279.0099°
argument of perigee: 121.7652°
revolutions per day: 14.51873562
mean anomaly at epoch: 238.2348°
orbit number at epoch: 0

The dashed part of the orbit path shows where the satellite is in the earth's shadow,  

DLR